Location: Newark
(50.4348°N, 30.5552°E)
Time: 01:54:46
(UTC+00:00)

Tiros 1 despin weight - Pass Details

Date: 24 January 2020
Orbit: 594 x 642 km, 48.2° (Epoch: 21 February)

Event Time Altitude Azimuth Distance (km) Brightness Sun altitude
Rises 11:06:51 0° 246° (WSW) 2,874 ? 19.2°
Reaches altitude 10° 11:09:10 10° 242° (WSW) 1,979 ? 19.1°
Maximum altitude 11:13:36 54° 165° (SSE) 759 ? 18.9°
Drops below altitude 10° 11:18:07 10° 88° (E) 2,012 ? 18.7°
Sets 11:20:30 0° 84° (E) 2,928 ? 18.6°
